Hollywood, FL

9:05 AM EDT on April 30, 2017 (GMT -0400)
North Perry

Weather History for KHWO - January, 2013

Change the Weather History Date:

Sunday, January 20, 2013

  Actual Average (KFLL) Record (KFLL)
Temperature  
Mean Temperature 72 °F -  
Max Temperature 81 °F 76 °F 88 °F (1947)
Min Temperature 64 °F 58 °F 28 °F (1977)
Cooling Degree Days 8    
Growing Degree Days 22 (Base 50)    
Moisture  
Dew Point 65 °F    
Average Humidity 87    
Maximum Humidity 100    
Minimum Humidity 50    
Precipitation  
Precipitation 0.00 in - - ()
Sea Level Pressure  
Sea Level Pressure 30.10 in    
Wind  
Wind Speed 3 mph (North)    
Max Wind Speed 8 mph    
Max Gust Speed -    
Visibility 8 miles    
Events      
Averages and records for this station are not official NWS values.
T = Trace of Precipitation, MM = Missing Value Source: NWS Daily Summary

Daily Weather History Graph

Daily Weather History Graph

Search for Another Location

Airport or City:

Trip Planner

Search our weather history database for the weather conditions in past years. The results will help you decide how hot, cold, wet, or windy it might be!

Date:

Astronomy

Jan. 20, 2013 Rise Set
Actual Time 7:08 AM EST 5:55 PM EST
Civil Twilight 6:44 AM EST 6:20 PM EST
Nautical Twilight 6:16 AM EST 6:48 PM EST
Astronomical Twilight 5:48 AM EST 7:15 PM EST
Moon 12:54 PM EST (1/20) 1:43 AM EST (1/20)
Length of Visible Light 11h 35m
Length of Day
10h 46m
Waxing Gibbous, 66% of the Moon is Illuminated
Jan 20
Waxing Gibbous
Jan 26
Full
Feb 3
Last Quarter
Feb 10
New
Feb 17
First Quarter

Hourly Weather History & Observations

Time (EST) Temp. Heat Index Dew Point Humidity Pressure Visibility Wind Dir Wind Speed Gust Speed Precip Events Conditions
12:53 AM 64.9 °F - 64.9 °F 100% 30.12 in 10.0 mi NW 3.5 mph - N/A   Mostly Cloudy
1:14 AM 64.4 °F - 64.4 °F 100% 30.11 in 10.0 mi Calm Calm - N/A   Scattered Clouds
1:30 AM 64.4 °F - 64.4 °F 100% 30.11 in 10.0 mi Calm Calm - N/A   Mostly Cloudy
1:53 AM 64.9 °F - 64.0 °F 97% 30.11 in 10.0 mi NW 3.5 mph - N/A   Overcast
2:34 AM 64.4 °F - 64.4 °F 100% 30.10 in 10.0 mi Calm Calm - N/A   Overcast
2:53 AM 64.0 °F - 64.0 °F 100% 30.10 in 10.0 mi Calm Calm - N/A   Overcast
3:53 AM 64.0 °F - 64.0 °F 100% 30.09 in 10.0 mi NNW 3.5 mph - N/A   Overcast
4:53 AM 64.0 °F - 64.0 °F 100% 30.10 in 10.0 mi Calm Calm - N/A   Overcast
5:53 AM 64.0 °F - 64.0 °F 100% 30.12 in 10.0 mi West 4.6 mph - N/A   Overcast
6:53 AM 64.0 °F - 64.0 °F 100% 30.12 in 10.0 mi NW 8.1 mph - N/A   Overcast
7:02 AM 64.4 °F - 64.4 °F 100% 30.13 in 1.0 mi NW 3.5 mph - N/A   Overcast
7:53 AM 64.9 °F - 64.9 °F 100% 30.14 in 1.0 mi NNW 3.5 mph - N/A   Overcast
8:00 AM 64.4 °F - 64.4 °F 100% 30.14 in 10.0 mi NNW 4.6 mph - N/A   Overcast
8:07 AM 66.2 °F - 66.2 °F 100% 30.15 in 2.0 mi NNW 3.5 mph - N/A   Mostly Cloudy
8:53 AM 66.9 °F - 66.9 °F 100% 30.16 in 2.0 mi NNW 3.5 mph - N/A   Mostly Cloudy
8:56 AM 66.2 °F - 66.2 °F 100% 30.16 in 3.0 mi North 3.5 mph - N/A   Scattered Clouds
9:53 AM 73.0 °F - 66.9 °F 81% 30.17 in 3.0 mi Calm Calm - N/A   Scattered Clouds
10:53 AM 77.0 °F - 66.0 °F 69% 30.16 in 10.0 mi NNW 3.5 mph - N/A   Clear
11:53 AM 75.9 °F - 64.9 °F 69% 30.12 in 10.0 mi Calm Calm - N/A   Clear
12:53 PM 81.0 °F 82.2 °F 63.0 °F 54% 30.08 in 10.0 mi North 4.6 mph - N/A   Clear
1:53 PM 79.0 °F - 59.0 °F 50% 30.05 in 10.0 mi Calm Calm - N/A   Mostly Cloudy
2:53 PM 78.1 °F - 64.9 °F 64% 30.04 in 10.0 mi East 8.1 mph - N/A   Overcast
3:53 PM 77.0 °F - 64.9 °F 66% 30.04 in 10.0 mi East 8.1 mph - N/A   Overcast
4:53 PM 75.0 °F - 64.9 °F 71% 30.06 in 10.0 mi ESE 6.9 mph - N/A   Overcast
5:53 PM 73.9 °F - 64.9 °F 73% 30.06 in 10.0 mi ENE 8.1 mph - N/A   Mostly Cloudy
6:53 PM 73.0 °F - 66.0 °F 79% 30.06 in 10.0 mi East 3.5 mph - N/A   Mostly Cloudy
7:53 PM 72.0 °F - 64.9 °F 78% 30.07 in 10.0 mi Calm Calm - N/A   Mostly Cloudy
8:53 PM 70.0 °F - 64.0 °F 81% 30.08 in 10.0 mi Calm Calm - N/A   Clear
9:53 PM 70.0 °F - 64.9 °F 84% 30.08 in 10.0 mi NNW 3.5 mph - N/A   Clear
10:53 PM 69.1 °F - 66.0 °F 90% 30.09 in 10.0 mi Calm Calm - N/A   Clear
11:53 PM 69.1 °F - 66.0 °F 90% 30.07 in 10.0 mi North 4.6 mph - N/A   Overcast